Larissa, Greece

2:11 PM EEST on June 27, 2017 (GMT +0300)
Larisa Air Base

Weather History for LGLR - December, 2013

Change the Weather History Date:

Friday, December 27, 2013

  Actual Average Record
Temperature  
Mean Temperature 49 °F -  
Max Temperature 55 °F 49 °F - ()
Min Temperature 43 °F 33 °F - ()
Degree Days  
Heating Degree Days 16    
Moisture  
Dew Point 49 °F    
Average Humidity 99    
Maximum Humidity 100    
Minimum Humidity 93    
Precipitation  
Precipitation 0.24 in 0.04 in - ()
Sea Level Pressure  
Sea Level Pressure 29.81 in    
Wind  
Wind Speed 1 mph ()    
Max Wind Speed 9 mph    
Max Gust Speed -    
Visibility 2.6 miles    
Events Fog , Rain    
T = Trace of Precipitation, MM = Missing Value Source: Averaged Metar Reports

Daily Weather History Graph

Daily Weather History Graph

Search for Another Location

Airport or City:

Trip Planner

Search our weather history database for the weather conditions in past years. The results will help you decide how hot, cold, wet, or windy it might be!

Date:

Astronomy

Dec. 27, 2013 Rise Set
Actual Time 7:49 AM EET 5:12 PM EET
Civil Twilight 7:19 AM EET 5:43 PM EET
Nautical Twilight 6:45 AM EET 6:17 PM EET
Astronomical Twilight 6:12 AM EET 6:49 PM EET
Moon 2:02 AM EET 1:11 PM EET
Length of Visible Light 10h 23m
Length of Day
9h 23m
Waning Crescent, 31% of the Moon is Illuminated
Dec 27
Waning Crescent
Jan 1
New
Jan 8
First Quarter
Jan 16
Full
Jan 24
Last Quarter

Hourly Weather History & Observations

Time (EET) Temp. Dew Point Humidity Pressure Visibility Wind Dir Wind Speed Gust Speed Precip Events Conditions
12:50 AM 44.6 °F 42.8 °F 93% 29.83 in 0.1 mi Calm Calm - N/A Fog Fog
1:50 AM 44.6 °F 44.6 °F 100% 29.80 in 0.1 mi Calm Calm - N/A Fog Fog
2:00 AM 44 °F 44 °F 99% 29.81 in 0 mi Calm Calm - - Fog Partial Fog
2:50 AM 44.6 °F 44.6 °F 100% 29.77 in 0.2 mi Calm Calm - N/A Fog , Rain Light Rain
3:50 AM 44.6 °F 44.6 °F 100% 29.77 in 0.5 mi Calm Calm - N/A Fog , Rain Light Rain
4:50 AM 44.6 °F 44.6 °F 100% 29.77 in 0.5 mi Calm Calm - N/A Fog , Rain Light Rain
5:00 AM 45 °F 45 °F 99% 29.78 in 0 mi Calm Calm - - Rain Light Rain
5:50 AM 44.6 °F 44.6 °F 100% 29.77 in 0.5 mi Calm Calm - N/A Fog , Rain Light Rain
6:50 AM 44.6 °F 44.6 °F 100% 29.77 in 0.7 mi Calm Calm - N/A   Overcast
7:50 AM 46.4 °F 46.4 °F 100% 29.77 in 0.9 mi Calm Calm - N/A Rain Light Rain
8:00 AM 46 °F 46 °F 98% 29.78 in 1 mi Calm Calm - - Rain Light Rain
8:50 AM 46.4 °F 46.4 °F 100% 29.77 in 0.9 mi Calm Calm - N/A Rain Light Rain
9:50 AM 46.4 °F 46.4 °F 100% 29.80 in 0.9 mi Calm Calm - N/A Rain Rain
10:50 AM 48.2 °F 48.2 °F 100% 29.80 in 0.9 mi Calm Calm - N/A Rain Rain
11:00 AM 48 °F 48 °F 100% 29.82 in 1 mi Calm Calm - - Rain Rain
11:50 AM 50.0 °F 50.0 °F 100% 29.80 in 0.9 mi Calm Calm - N/A Rain Rain
12:50 PM 51.8 °F 51.8 °F 100% 29.74 in 1.1 mi NE 9.2 mph - N/A   Overcast
1:50 PM 53.6 °F 53.6 °F 100% 29.77 in 3.7 mi East 5.8 mph - N/A   Overcast
2:00 PM 54 °F 54 °F 99% 29.78 in 4 mi East 5.8 mph - -   Mist
2:50 PM 55.4 °F 53.6 °F 94% 29.77 in 5.0 mi East 9.2 mph - N/A   Overcast
3:50 PM 55.4 °F 53.6 °F 94% 29.80 in 5.0 mi East 4.6 mph - N/A   Overcast
4:50 PM 53.6 °F 53.6 °F 100% 29.80 in 5.0 mi ENE 3.5 mph - N/A   Overcast
5:00 PM 54 °F 53 °F 95% 29.83 in 5 mi ENE 3.5 mph - -   Mist
5:50 PM 53.6 °F 51.8 °F 94% 29.83 in 5.0 mi Calm Calm - N/A   Drizzle
6:50 PM 51.8 °F 51.8 °F 100% 29.86 in 5.0 mi Calm Calm - N/A Rain Light Rain
7:20 PM 51.8 °F 50.0 °F 94% 29.86 in 5.0 mi Calm Calm - N/A Rain Light Rain
8:00 PM 51 °F 51 °F 99% 29.88 in 5 mi Calm Calm - - Rain Light Rain
8:50 PM 50.0 °F 50.0 °F 100% 29.86 in 5.0 mi Calm Calm - N/A Rain Light Rain
9:50 PM 50.0 °F 50.0 °F 100% 29.86 in 5.0 mi Calm Calm - N/A   Overcast
10:50 PM 50.0 °F 50.0 °F 100% 29.86 in 5.0 mi Calm Calm - N/A   Overcast
11:00 PM 50 °F 50 °F 100% 29.89 in 5 mi Calm Calm - -   Mist
11:50 PM 50.0 °F 50.0 °F 100% 29.89 in 5.0 mi Calm Calm - N/A   Overcast